Location: Huppendorf
(49.9333°N, 11.1500°E)
Time: 06:07:24
(UTC+00:00)

CZ-2C R/B - Pass Details

Date: 27 February 2020
Orbit: 784 x 871 km, 98.3° (Epoch: 28 March)

Event Time Altitude Azimuth Distance (km) Brightness Sun altitude
Rises 20:33:11 0° 10° (N) 3,439 6.1 -34.8°
Reaches altitude 10° 20:35:40 10° 5° (N) 2,488 5.4 -35.1°
Enters shadow 20:38:40 30° 347° (NNW) 1,463 4.2 -35.5°
